TimeCDT,TemperatureF,Dew PointF,Humidity,Sea Level PressureIn,VisibilityMPH,Wind Direction,Wind SpeedMPH,Gust SpeedMPH,PrecipitationIn,Events,Conditions,WindDirDegrees,DateUTC
12:15 AM,39.2,33.8,81,30.22,10.0,ESE,3.5,-,N/A,,Clear,120,2013-03-30 05:15:00
12:35 AM,39.2,33.8,81,30.22,10.0,East,3.5,-,N/A,,Clear,100,2013-03-30 05:35:00
12:55 AM,39.2,33.8,81,30.22,10.0,East,3.5,-,N/A,,Clear,100,2013-03-30 05:55:00
1:15 AM,39.2,33.8,81,30.22,10.0,SE,3.5,-,N/A,,Clear,130,2013-03-30 06:15:00
1:35 AM,39.2,33.8,81,30.20,10.0,ESE,6.9,-,N/A,,Clear,120,2013-03-30 06:35:00
1:55 AM,37.4,33.8,87,30.19,10.0,ESE,5.8,-,N/A,,Clear,110,2013-03-30 06:55:00
2:15 AM,37.4,32.0,81,30.19,10.0,SE,5.8,-,N/A,,Clear,130,2013-03-30 07:15:00
2:35 AM,39.2,33.8,81,30.19,10.0,ESE,4.6,-,N/A,,Clear,120,2013-03-30 07:35:00
2:55 AM,37.4,32.0,81,30.18,10.0,East,3.5,-,N/A,,Clear,100,2013-03-30 07:55:00
3:15 AM,37.4,32.0,81,30.19,10.0,SE,4.6,-,N/A,,Clear,130,2013-03-30 08:15:00
3:35 AM,33.8,30.2,87,30.19,10.0,SSE,3.5,-,N/A,,Clear,150,2013-03-30 08:35:00
3:55 AM,35.6,30.2,81,30.20,10.0,Calm,Calm,-,N/A,,Clear,0,2013-03-30 08:55:00
4:15 AM,35.6,32.0,87,30.19,10.0,SE,3.5,-,N/A,,Clear,130,2013-03-30 09:15:00
4:35 AM,35.6,30.2,81,30.19,10.0,SE,4.6,-,N/A,,Clear,140,2013-03-30 09:35:00
4:55 AM,35.6,32.0,87,30.19,10.0,SE,4.6,-,N/A,,Clear,130,2013-03-30 09:55:00
5:15 AM,35.6,32.0,87,30.17,10.0,SE,5.8,-,N/A,,Clear,130,2013-03-30 10:15:00
5:35 AM,35.6,30.2,81,30.16,10.0,ESE,6.9,-,N/A,,Clear,120,2013-03-30 10:35:00
5:55 AM,35.6,32.0,87,30.16,10.0,ESE,5.8,-,N/A,,Clear,120,2013-03-30 10:55:00
6:15 AM,33.8,30.2,87,30.18,10.0,SSE,4.6,-,N/A,,Clear,150,2013-03-30 11:15:00
6:35 AM,33.8,32.0,93,30.17,10.0,SE,4.6,-,N/A,,Clear,130,2013-03-30 11:35:00
6:55 AM,33.8,32.0,93,30.16,7.0,SE,5.8,-,N/A,,Clear,130,2013-03-30 11:55:00
7:15 AM,35.6,33.8,93,30.16,10.0,ESE,5.8,-,N/A,,Clear,120,2013-03-30 12:15:00
7:35 AM,35.6,33.8,93,30.15,7.0,SE,6.9,-,N/A,,Clear,140,2013-03-30 12:35:00
7:55 AM,37.4,33.8,87,30.15,7.0,ESE,5.8,-,N/A,,Clear,120,2013-03-30 12:55:00
8:15 AM,41.0,35.6,81,30.14,10.0,SE,6.9,-,N/A,,Clear,140,2013-03-30 13:15:00
8:35 AM,42.8,37.4,81,30.14,7.0,SE,9.2,-,N/A,,Clear,140,2013-03-30 13:35:00
8:55 AM,44.6,39.2,81,30.14,7.0,SE,9.2,-,N/A,,Clear,140,2013-03-30 13:55:00
9:15 AM,46.4,41.0,81,30.13,7.0,SSE,8.1,-,N/A,,Clear,150,2013-03-30 14:15:00
9:35 AM,46.4,42.8,87,30.12,7.0,SE,9.2,-,N/A,,Clear,140,2013-03-30 14:35:00
9:55 AM,48.2,42.8,82,30.12,7.0,SSE,11.5,16.1,N/A,,Clear,160,2013-03-30 14:55:00
10:15 AM,48.2,42.8,82,30.13,7.0,South,12.7,-,N/A,,Clear,170,2013-03-30 15:15:00
10:35 AM,50.0,44.6,82,30.12,7.0,SSE,9.2,-,N/A,,Clear,160,2013-03-30 15:35:00
10:55 AM,50.0,42.8,76,30.12,7.0,South,10.4,-,N/A,,Clear,170,2013-03-30 15:55:00
11:15 AM,50.0,44.6,82,30.12,7.0,South,11.5,-,N/A,,Clear,180,2013-03-30 16:15:00
11:35 AM,50.0,42.8,76,30.11,10.0,South,15.0,-,N/A,,Clear,170,2013-03-30 16:35:00
11:55 AM,51.8,42.8,71,30.10,10.0,South,13.8,-,N/A,,Clear,170,2013-03-30 16:55:00
12:15 PM,51.8,42.8,71,30.09,10.0,SSE,12.7,-,N/A,,Clear,160,2013-03-30 17:15:00
12:35 PM,51.8,42.8,71,30.08,10.0,SSE,17.3,-,N/A,,Clear,160,2013-03-30 17:35:00
12:55 PM,51.8,42.8,71,30.07,10.0,South,16.1,-,N/A,,Clear,170,2013-03-30 17:55:00
1:15 PM,53.6,42.8,67,30.06,10.0,South,16.1,-,N/A,,Clear,180,2013-03-30 18:15:00
1:35 PM,51.8,42.8,71,30.05,10.0,SSE,15.0,20.7,N/A,,Clear,160,2013-03-30 18:35:00
1:55 PM,51.8,42.8,71,30.04,10.0,SSE,15.0,19.6,N/A,,Clear,160,2013-03-30 18:55:00
2:15 PM,51.8,42.8,71,30.03,10.0,South,13.8,-,N/A,,Clear,170,2013-03-30 19:15:00
2:35 PM,53.6,41.0,62,30.02,10.0,South,13.8,-,N/A,,Clear,170,2013-03-30 19:35:00
2:55 PM,53.6,41.0,62,30.01,10.0,South,12.7,-,N/A,,Clear,180,2013-03-30 19:55:00
3:15 PM,53.6,41.0,62,30.00,10.0,SSE,13.8,-,N/A,,Clear,150,2013-03-30 20:15:00
3:35 PM,53.6,39.2,58,29.99,10.0,South,12.7,21.9,N/A,,Scattered Clouds,170,2013-03-30 20:35:00
3:55 PM,51.8,39.2,62,29.99,10.0,South,12.7,-,N/A,,Scattered Clouds,170,2013-03-30 20:55:00
4:15 PM,51.8,41.0,67,29.98,10.0,South,11.5,-,N/A,,Clear,170,2013-03-30 21:15:00
4:35 PM,51.8,42.8,71,29.98,10.0,South,12.7,-,N/A,,Clear,170,2013-03-30 21:35:00
4:55 PM,51.8,42.8,71,29.97,10.0,South,10.4,-,N/A,,Scattered Clouds,190,2013-03-30 21:55:00
5:15 PM,51.8,42.8,71,29.96,10.0,South,10.4,-,N/A,,Scattered Clouds,190,2013-03-30 22:15:00
5:35 PM,51.8,42.8,71,29.96,10.0,South,8.1,-,N/A,,Scattered Clouds,190,2013-03-30 22:35:00
5:55 PM,51.8,42.8,71,29.95,10.0,South,5.8,-,N/A,,Scattered Clouds,180,2013-03-30 22:55:00
6:15 PM,50.0,42.8,76,29.94,10.0,South,4.6,-,N/A,,Mostly Cloudy,170,2013-03-30 23:15:00
6:35 PM,50.0,42.8,76,29.93,10.0,South,5.8,-,N/A,,Scattered Clouds,170,2013-03-30 23:35:00
6:55 PM,50.0,42.8,76,29.93,10.0,SSE,5.8,-,N/A,,Clear,160,2013-03-30 23:55:00
7:15 PM,48.2,42.8,82,29.93,10.0,South,4.6,-,N/A,,Mostly Cloudy,180,2013-03-31 00:15:00
7:35 PM,48.2,42.8,82,29.93,10.0,SW,8.1,-,N/A,,Overcast,220,2013-03-31 00:35:00
7:55 PM,48.2,42.8,82,29.93,10.0,WSW,5.8,-,N/A,,Overcast,240,2013-03-31 00:55:00
8:15 PM,46.4,42.8,87,29.93,10.0,SW,8.1,-,N/A,,Drizzle,220,2013-03-31 01:15:00
8:35 PM,46.4,42.8,87,29.94,7.0,SW,10.4,-,N/A,Rain,Light Rain,230,2013-03-31 01:35:00
8:55 PM,46.4,44.6,93,29.91,7.0,South,12.7,-,N/A,,Drizzle,170,2013-03-31 01:55:00
9:15 PM,44.6,42.8,93,29.94,10.0,SW,9.2,-,N/A,,Overcast,230,2013-03-31 02:15:00
9:35 PM,44.6,42.8,93,29.94,10.0,SW,6.9,-,N/A,,Overcast,230,2013-03-31 02:35:00
9:55 PM,44.6,42.8,93,29.93,10.0,SSW,6.9,-,N/A,,Overcast,210,2013-03-31 02:55:00
10:15 PM,44.6,42.8,93,29.93,7.0,SSW,6.9,-,N/A,,Overcast,210,2013-03-31 03:15:00
10:35 PM,44.6,42.8,93,29.93,7.0,SW,5.8,-,N/A,,Overcast,220,2013-03-31 03:35:00
10:55 PM,44.6,42.8,93,29.92,5.0,SSW,4.6,-,N/A,,Overcast,200,2013-03-31 03:55:00
11:15 PM,44.6,44.6,100,29.92,5.0,South,4.6,-,N/A,,Overcast,180,2013-03-31 04:15:00
11:35 PM,44.6,44.6,100,29.92,5.0,South,3.5,-,N/A,,Overcast,190,2013-03-31 04:35:00
11:55 PM,44.6,44.6,100,29.90,5.0,South,5.8,-,N/A,,Overcast,170,2013-03-31 04:55:00